• In Denmark
  • List of Countries
  • For 7 days
  • Water Temperature
  • Satellite Maps
  • Weather Map
  • Weather Widgets
  • user-avatar
    Login

    Hourly Weather Jazowsko

    Today, 26 September, Wednesday

    Time Temperature Precipitation Wind Pressure Humidity
    00:00 +3°C° 0 mm 2 mps 746 mmHg 85%
    01:00 +3°C° 0 mm 2 mps 746 mmHg 86%
    02:00 +2°C° 0 mm 2 mps 746 mmHg 87%
    03:00 +2°C° 0 mm 2 mps 747 mmHg 87%
    04:00 +3°C° 0 mm 1 mps 747 mmHg 88%
    05:00 +4°C° 0 mm 1 mps 747 mmHg 84%
    06:00 +5°C° 0 mm 1 mps 747 mmHg 80%
    07:00 +6°C° 0 mm 1 mps 747 mmHg 75%
    08:00 +8°C° 0 mm 1 mps 747 mmHg 65%
    09:00 +11°C° 0 mm 1 mps 747 mmHg 55%
    10:00 +13°C° 0 mm 1 mps 747 mmHg 45%
    11:00 +14°C° 0 mm 2 mps 746 mmHg 42%
    12:00 +15°C° 0 mm 2 mps 746 mmHg 39%
    13:00 +15°C° 0 mm 2 mps 745 mmHg 36%
    14:00 +15°C° 0 mm 2 mps 745 mmHg 40%
    15:00 +15°C° 0 mm 2 mps 744 mmHg 44%
    16:00 +14°C° 0 mm 2 mps 744 mmHg 48%
    17:00 +13°C° 0 mm 2 mps 744 mmHg 52%
    18:00 +12°C° 0 mm 2 mps 744 mmHg 56%
    19:00 +10°C° 0 mm 1 mps 743 mmHg 60%
    20:00 +9°C° 0 mm 2 mps 743 mmHg 60%
    21:00 +9°C° 0 mm 2 mps 743 mmHg 60%
    22:00 +9°C° 0 mm 2 mps 743 mmHg 60%
    23:00 +9°C° 0 mm 2 mps 743 mmHg 59%

    Tomorrow, 27 September, Thursday

    Time Temperature Precipitation Wind Pressure Humidity
    00:00 +8°C° 0 mm 2 mps 743 mmHg 58%
    01:00 +8°C° 0 mm 2 mps 742 mmHg 57%
    02:00 +8°C° 0 mm 2 mps 742 mmHg 55%
    03:00 +8°C° 0 mm 2 mps 742 mmHg 52%
    04:00 +9°C° 0 mm 2 mps 741 mmHg 50%
    05:00 +9°C° 0 mm 2 mps 741 mmHg 50%
    06:00 +10°C° 0 mm 2 mps 741 mmHg 50%
    07:00 +10°C° 0 mm 2 mps 741 mmHg 51%
    08:00 +13°C° 0 mm 2 mps 741 mmHg 50%
    09:00 +14°C° 0 mm 2 mps 741 mmHg 50%
    10:00 +16°C° 0 mm 2 mps 742 mmHg 49%
    11:00 +17°C° 0 mm 2 mps 741 mmHg 51%
    12:00 +17°C° 0 mm 2 mps 741 mmHg 54%
    13:00 +18°C° 0 mm 2 mps 741 mmHg 56%
    14:00 +18°C° 0 mm 2 mps 740 mmHg 58%
    15:00 +18°C° 0 mm 2 mps 740 mmHg 60%
    16:00 +19°C° 0 mm 2 mps 739 mmHg 62%
    17:00 +17°C° 0 mm 2 mps 739 mmHg 68%
    18:00 +15°C° 0 mm 2 mps 739 mmHg 74%
    19:00 +13°C° 0 mm 2 mps 739 mmHg 80%
    20:00 +12°C° 0 mm 2 mps 739 mmHg 80%
    21:00 +12°C° 0 mm 2 mps 738 mmHg 81%
    22:00 +12°C° 0 mm 2 mps 738 mmHg 82%
    23:00 +12°C° 0 mm 2 mps 738 mmHg 82%

    Day after tomorrow, 28 September, Friday

    Time Temperature Precipitation Wind Pressure Humidity
    00:00 +10°C° 0 mm 2 mps 737 mmHg 82%
    01:00 +10°C° 0 mm 2 mps 736 mmHg 81%
    02:00 +10°C° 0 mm 2 mps 736 mmHg 81%
    03:00 +10°C° 0 mm 2 mps 735 mmHg 81%
    04:00 +10°C° 0 mm 2 mps 735 mmHg 81%
    05:00 +12°C° 0 mm 2 mps 735 mmHg 79%
    06:00 +12°C° 0 mm 2 mps 735 mmHg 76%
    07:00 +13°C° 0 mm 2 mps 735 mmHg 74%
    08:00 +15°C° 0 mm 2 mps 735 mmHg 66%
    09:00 +17°C° 0 mm 3 mps 735 mmHg 57%
    10:00 +20°C° 0 mm 3 mps 735 mmHg 49%
    11:00 +21°C° 0 mm 3 mps 734 mmHg 46%
    12:00 +21°C° 0 mm 3 mps 734 mmHg 44%
    13:00 +22°C° 0 mm 3 mps 733 mmHg 42%
    14:00 +21°C° 0 mm 3 mps 733 mmHg 46%
    15:00 +20°C° 0 mm 2 mps 733 mmHg 50%
    16:00 +19°C° 0 mm 2 mps 732 mmHg 54%
    17:00 +17°C° 0 mm 2 mps 732 mmHg 61%
    18:00 +15°C° 0 mm 2 mps 733 mmHg 67%
    19:00 +13°C° 0 mm 2 mps 733 mmHg 74%
    20:00 +13°C° 0 mm 1 mps 733 mmHg 78%
    21:00 +12°C° 0 mm 1 mps 733 mmHg 82%
    22:00 +12°C° 0 mm 1 mps 733 mmHg 86%
    23:00 +12°C° 0 mm 1 mps 733 mmHg 87%

    29 September, Saturday

    Time Temperature Precipitation Wind Pressure Humidity
    00:00 +12°C° 0 mm 1 mps 733 mmHg 88%
    01:00 +12°C° 0 mm 1 mps 733 mmHg 89%
    02:00 +11°C° 0 mm 1 mps 733 mmHg 88%
    03:00 +10°C° 0 mm 2 mps 733 mmHg 88%
    04:00 +10°C° 0 mm 2 mps 733 mmHg 87%
    05:00 +9°C° 0.2 mm 2 mps 734 mmHg 88%
    06:00 +9°C° 0.2 mm 2 mps 734 mmHg 88%
    07:00 +9°C° 0.2 mm 2 mps 734 mmHg 88%
    08:00 +9°C° 0.3 mm 2 mps 735 mmHg 85%
    09:00 +10°C° 0.3 mm 2 mps 735 mmHg 82%
    10:00 +10°C° 0.3 mm 2 mps 735 mmHg 79%
    11:00 +11°C° 0.2 mm 3 mps 735 mmHg 75%
    12:00 +11°C° 0.2 mm 3 mps 735 mmHg 71%
    13:00 +12°C° 0.2 mm 3 mps 736 mmHg 68%
    14:00 +11°C° 0.1 mm 3 mps 736 mmHg 67%
    15:00 +11°C° 0.1 mm 3 mps 736 mmHg 67%
    16:00 +11°C° 0.1 mm 3 mps 736 mmHg 66%
    17:00 +10°C° 0 mm 3 mps 736 mmHg 69%
    18:00 +9°C° 0 mm 3 mps 737 mmHg 73%
    19:00 +7°C° 0 mm 2 mps 737 mmHg 76%
    20:00 +7°C° 0 mm 2 mps 737 mmHg 77%
    21:00 +6°C° 0 mm 2 mps 738 mmHg 79%
    22:00 +5°C° 0 mm 2 mps 738 mmHg 80%
    23:00 +5°C° 0 mm 2 mps 738 mmHg 82%

    30 September, Sunday

    Time Temperature Precipitation Wind Pressure Humidity
    00:00 +6°C° 0 mm 1 mps 738 mmHg 83%
    01:00 +5°C° 0 mm 1 mps 738 mmHg 84%
    02:00 +5°C° 0 mm 1 mps 738 mmHg 85%
    03:00 +5°C° 0 mm 1 mps 738 mmHg 86%
    04:00 +4°C° 0 mm 1 mps 738 mmHg 88%
    05:00 +5°C° 0 mm 1 mps 738 mmHg 85%
    06:00 +6°C° 0 mm 1 mps 738 mmHg 82%
    07:00 +6°C° 0 mm 1 mps 738 mmHg 79%
    08:00 +7°C° 0 mm 2 mps 738 mmHg 72%
    09:00 +9°C° 0 mm 2 mps 738 mmHg 64%
    10:00 +11°C° 0 mm 3 mps 738 mmHg 57%
    11:00 +12°C° 0 mm 3 mps 737 mmHg 56%
    12:00 +13°C° 0 mm 3 mps 737 mmHg 54%
    13:00 +14°C° 0 mm 3 mps 736 mmHg 53%
    14:00 +14°C° 0 mm 3 mps 736 mmHg 56%
    15:00 +14°C° 0 mm 2 mps 736 mmHg 60%
    16:00 +14°C° 0 mm 2 mps 735 mmHg 64%
    17:00 +12°C° 0 mm 2 mps 735 mmHg 72%
    18:00 +10°C° 0 mm 1 mps 735 mmHg 80%
    19:00 +9°C° 0 mm 1 mps 735 mmHg 89%
    20:00 +8°C° 0 mm 1 mps 735 mmHg 90%
    21:00 +8°C° 0 mm 1 mps 735 mmHg 91%
    22:00 +8°C° 0 mm 1 mps 734 mmHg 92%
    23:00 +8°C° 0 mm 1 mps 734 mmHg 92%

    1 October, Monday

    Time Temperature Precipitation Wind Pressure Humidity
    00:00 +8°C° 0 mm 1 mps 734 mmHg 92%
    01:00 +8°C° 0 mm 1 mps 733 mmHg 92%
    02:00 +8°C° 0 mm 1 mps 733 mmHg 91%
    03:00 +8°C° 0 mm 1 mps 733 mmHg 91%
    04:00 +8°C° 0 mm 1 mps 732 mmHg 91%
    05:00 +9°C° 0 mm 1 mps 732 mmHg 88%
    06:00 +10°C° 0 mm 1 mps 732 mmHg 85%
    07:00 +10°C° 0 mm 1 mps 732 mmHg 82%
    08:00 +13°C° 0 mm 1 mps 731 mmHg 73%
    09:00 +15°C° 0 mm 2 mps 731 mmHg 65%
    10:00 +18°C° 0 mm 2 mps 731 mmHg 56%
    11:00 +19°C° 0 mm 2 mps 730 mmHg 53%
    12:00 +20°C° 0 mm 2 mps 730 mmHg 51%
    13:00 +21°C° 0 mm 2 mps 729 mmHg 49%
    14:00 +20°C° 0 mm 2 mps 729 mmHg 53%
    15:00 +19°C° 0 mm 2 mps 728 mmHg 57%
    16:00 +18°C° 0 mm 2 mps 728 mmHg 62%
    17:00 +17°C° 0 mm 2 mps 728 mmHg 66%
    18:00 +16°C° 0 mm 2 mps 727 mmHg 71%
    19:00 +14°C° 0 mm 2 mps 727 mmHg 76%
    20:00 +14°C° 0 mm 1 mps 727 mmHg 77%
    21:00 +14°C° 0 mm 1 mps 727 mmHg 78%
    22:00 +14°C° 0 mm 1 mps 727 mmHg 78%
    23:00 +14°C° 0.3 mm 1 mps 726 mmHg 81%
    Show more